Regional Weather Roundup
Issued by NWS Charleston, SC

Current Version | Previous Version | Graphics & Text | Print | Product List | Glossary On
Versions: 1 2 3 4 5 6 7 8 9 10 11 12 13 14 15 16 17 18 19 20 21 22 23 24 25 26 27 28 29 30 31 32 33 34 35 36 37 38 39 40 41 42 43 44 45 46 47 48 49 50
000
ASUS42 KCHS 011025
RWRCHS

REGIONAL WEATHER ROUNDUP
NATIONAL WEATHER SERVICE CHARLESTON SC
600 AM EDT WED OCT 01 2014

NOTE: "FAIR" INDICATES FEW OR NO CLOUDS BELOW 12,000 FEET WITH NO
SIGNIFICANT WEATHER AND/OR OBSTRUCTIONS TO VISIBILITY.

NOT ALL STATIONS ARE QUALITY CONTROLLED BY THE NATIONAL
WEATHER SERVICE. USE DATA WITH CAUTION...ESPECIALLY
DEWPOINT OBSERVATIONS.

SCZ027-030-031-034>040-042>050-011100-
...SOUTH CAROLINA...

CITY           SKY/WX    TMP DP  RH WIND       PRES   REMARKS
N CHARLESTON   CLEAR     64  62  93 NW3       29.92R
WATERFRONT PRK   N/A     70 N/A N/A CALM        N/A
FORT JOHNSON   NOT AVBL
MOUNT PLEASANT FAIR      63  63 100 CALM      29.92R
JOHNS ISLAND   SUNNY     64  64 100 CALM      29.93R
PINOPOLIS        N/A     70  66  88 MISG      29.84R
MONCKS CORNER  FOG       63  63 100 CALM      29.93R VSB 3/4
SUMMERVILLE    FAIR      61  61 100 CALM      29.93R
BEAUFORT MCAS  CLEAR     65  63  93 CALM      29.92R
BEAUFORT ARPT  FAIR      64  64 100 CALM      29.91S FOG
HILTON HEAD IS NOT AVBL
GEORGETOWN     NOT AVBL
WALTERBORO     SUNNY     61 N/A N/A CALM      29.93S
ORANGEBURG     CLEAR     61  59  93 CALM      29.93R
BARNWELL       FAIR      57  57 100 CALM      29.94R
AIKEN          FAIR      59  59 100 CALM      29.98R
MANNING        FAIR      59 N/A N/A CALM      29.93R
KINGSTREE      NOT AVBL
COLUMBIA       MOCLDY    61  58  90 W3        29.93R
SUMTER         CLEAR     59  57  91 N3        29.92R
FLORENCE       CLEAR     60  59  96 CALM      29.92R
MYRTLE BEACH   CLEAR     64  61  88 N6        29.91S
N MYRTLE BEACH CLEAR     63  61  93 NE5       29.91R

$$

GAZ063-065-086>088-099>101-113>116-118-119-134-136>141-150-011100-
...GEORGIA...

CITY           SKY/WX    TMP DP  RH WIND       PRES   REMARKS
SAVANNAH ARPT  NOT AVBL
HUNTER AAF     CLEAR     65  65 100 NW2       29.90R
FORT STEWART   CLEAR     63  62  95 CALM      29.91R
STATESBORO     NOT AVBL
SYLVANIA       SUNNY     64  64  99 CALM      29.94R
CLAXTON        FAIR      63  63 100 CALM      29.93R
THOMSON        CLEAR     60  60 100 CALM      29.99R
AUGUSTA-BUSH   CLEAR     56  56 100 CALM      29.94R FOG
AUGUSTA-DANIEL CLEAR     66  63  90 CALM      29.94R
SWAINSBORO     FAIR      64  64 100 CALM      29.95R
VIDALIA        CLEAR     64  64 100 CALM      29.94R
ALMA           CLOUDY    65  64  97 CALM      29.92R FOG
WAYCROSS       CLOUDY    70  70 100 CALM      29.93R
JESUP          FAIR      64  63  94 CALM      29.93R
BRUNSWICK      CLOUDY    68  66  94 CALM      29.93R
SAINT SIMONS   MOCLDY    67  66  97 CALM      29.91R

$$

SCZ027-028-034-036>038-045-046-048>050-GAZ119-141-011100-
...LAKE AND SUPPLEMENTAL COASTAL OBSERVATIONS...

STATION/POSITION TIME  TEMP    WIND        PRES    WAVE   SWELL
                       AIR SEA DIR/SP/G            HT/PER HT/PER/DIR
                 (UTC) (F)     (DEG/KT/KT) (MB)    (FT/S) (FT/S/D)
UPR LAKE MARION  NOT AVBL
WINYAH BAY       1000   66     350/  3     1012.0S
LAKE MURRAY      1000   65        CALM     1013.2R
ACE BASIN NERRS  1000   64        CALM     1013.0S
FORT PULASKI     1000   69     310/  5/  6 1013.3R
SAPELO ISLAND    NOT AVBL

$$

ANZ835-935-AMZ111-154-330-350-352-354-374-450-454-472-011100-
...C-MAN AND BUOY OBSERVATIONS...

STATION/POSITION TIME  TEMP    WIND        PRES    WAVE   SWELL
                       AIR SEA DIR/SP/G            HT/PER HT/PER/DIR
                 (UTC) (F)     (DEG/KT/KT) (MB)    (FT/S) (FT/S/D)
FOLLY BEACH CMAN 1000   67     330/  3/  4 1013.4R
BUOY 41004       1000   76 81   10/  8/ 10 1011.9R   3/ 6   3/ 6
BUOY 41008       1000   76 78   20/  6/  8 1012.7R   2/ 7   2/ 70/ 7
5E ST. MARYS GA  1000      79                N/A     3/ 7
FRYING PAN BUOY  NOT AVBL
BUOY 41025       1000   72     360/ 16/ 19 1011.3R   4/ 7   2/ 70/11
CAPE LOOKOUT NC  1000   68      10/ 10/ 12 1012.2R
BUOY 41002       0941   76 80   20/ 14/ 17 1009.2R   3/ 5   2/ 40/ 7
BUOY 41010       1000   81 85   20/  4/  6 1011.2R   4/ 7   3/ 40/ 7
BUOY 41012       NOT AVBL
ST AUGUSTINE FL  1000   78      50/  9/ 10 1012.5R
CAPERS NEARSHORE 0900   70     360/  6/  8   N/A
FRIPP NEARSHORE  NOT AVBL


$$


USA.gov is the U.S. government's official web portal to all federal, state and local government web resources and services.